Weather History for KTPL - September, 2013

Change the Weather History Date:

Sunday, September 29, 2013

  Actual Average Record
Temperature  
Mean Temperature 71 °F -  
Max Temperature 78 °F 83 °F 100 °F (2011)
Min Temperature 64 °F 60 °F 48 °F (1996)
Cooling Degree Days 6    
Growing Degree Days 21 (Base 50)    
Moisture  
Dew Point 60 °F    
Average Humidity 75    
Maximum Humidity 88    
Minimum Humidity 50    
Precipitation  
Precipitation 0.01 in - - ()
Sea Level Pressure  
Sea Level Pressure 30.01 in    
Wind  
Wind Speed 10 mph (NNW)    
Max Wind Speed 14 mph    
Max Gust Speed 18 mph    
Visibility 10 miles    
Events      
Averages and records for this station are not official NWS values.
T = Trace of Precipitation, MM = Missing Value Source: NWS Daily Summary

Daily Weather History Graph

Daily Weather History Graph

Search for Another Location

Airport or City:

Trip Planner

Search our weather history database for the weather conditions in past years. The results will help you decide how hot, cold, wet, or windy it might be!

Date:

Astronomy

Sep. 29, 2013 Rise Set
Actual Time 7:22 AM CDT 7:16 PM CDT
Civil Twilight 6:58 AM CDT 7:41 PM CDT
Nautical Twilight 6:30 AM CDT 8:09 PM CDT
Astronomical Twilight 6:01 AM CDT 8:37 PM CDT
Moon 2:22 AM CDT (9/29) 3:58 PM CDT (9/29)
Length of Visible Light 12h 42m
Length of Day
11h 54m
Waning Crescent, 27% of the Moon is Illuminated
Sep 29
Waning Crescent
Oct 4
New
Oct 11
First Quarter
Oct 18
Full
Oct 26
Last Quarter

Hourly Weather History & Observations

Time (CDT) Temp. Dew Point Humidity Pressure Visibility Wind Dir Wind Speed Gust Speed Precip Events Conditions
12:15 AM 69.8 °F 66.2 °F 88% 30.03 in 9.0 mi NNW 10.4 mph - N/A   Overcast
12:35 AM 69.8 °F 64.4 °F 83% 30.04 in 10.0 mi NNW 12.7 mph - N/A   Overcast
12:55 AM 68.0 °F 62.6 °F 83% 30.03 in 10.0 mi NNW 10.4 mph - N/A   Overcast
1:15 AM 68.0 °F 62.6 °F 83% 30.04 in 10.0 mi North 12.7 mph - N/A   Overcast
1:35 AM 68.0 °F 62.6 °F 83% 30.03 in 10.0 mi NNW 12.7 mph - N/A   Overcast
1:55 AM 66.2 °F 62.6 °F 88% 30.04 in 9.0 mi NNW 12.7 mph 17.3 mph N/A   Overcast
2:15 AM 66.2 °F 62.6 °F 88% 30.03 in 9.0 mi NNW 12.7 mph - N/A   Overcast
2:35 AM 66.2 °F 60.8 °F 83% 30.02 in 10.0 mi NNW 11.5 mph - N/A   Overcast
2:55 AM 66.2 °F 60.8 °F 83% 30.03 in 10.0 mi NNW 10.4 mph - N/A   Overcast
3:15 AM 66.2 °F 60.8 °F 83% 30.03 in 8.0 mi NNW 8.1 mph - N/A   Overcast
3:35 AM 64.4 °F 60.8 °F 88% 30.03 in 3.0 mi North 10.4 mph - N/A   Overcast
3:55 AM 64.4 °F 60.8 °F 88% 30.03 in 5.0 mi NNW 12.7 mph - N/A   Overcast
4:15 AM 64.4 °F 60.8 °F 88% 30.03 in 6.0 mi NNW 11.5 mph - N/A   Overcast
4:35 AM 64.4 °F 60.8 °F 88% 30.02 in 9.0 mi North 10.4 mph - N/A   Overcast
4:55 AM 64.4 °F 60.8 °F 88% 30.03 in 9.0 mi NNW 11.5 mph - N/A   Overcast
5:15 AM 64.4 °F 60.8 °F 88% 30.04 in 10.0 mi NNW 10.4 mph - N/A   Overcast
5:35 AM 64.4 °F 60.8 °F 88% 30.03 in 10.0 mi NNW 11.5 mph - N/A   Overcast
5:55 AM 64.4 °F 60.8 °F 88% 30.03 in 10.0 mi NNW 8.1 mph - N/A   Overcast
6:15 AM 64.4 °F 60.8 °F 88% 30.04 in 10.0 mi NNW 10.4 mph - N/A   Overcast
6:35 AM 64.4 °F 60.8 °F 88% 30.04 in 10.0 mi NNW 12.7 mph - 0.01 in   Overcast
6:55 AM 64.4 °F 60.8 °F 88% 30.05 in 10.0 mi NNW 10.4 mph - 0.01 in   Overcast
7:15 AM 64.4 °F 60.8 °F 88% 30.05 in 10.0 mi NW 12.7 mph - N/A   Overcast
7:35 AM 64.4 °F 60.8 °F 88% 30.05 in 10.0 mi NW 8.1 mph - N/A   Overcast
7:55 AM 64.4 °F 60.8 °F 88% 30.05 in 10.0 mi NNW 11.5 mph - N/A   Overcast
8:15 AM 64.4 °F 60.8 °F 88% 30.05 in 10.0 mi NNW 10.4 mph - N/A   Overcast
8:35 AM 64.4 °F 60.8 °F 88% 30.05 in 10.0 mi NNW 10.4 mph - N/A   Overcast
8:55 AM 64.4 °F 60.8 °F 88% 30.05 in 10.0 mi NNW 11.5 mph - N/A   Overcast
9:15 AM 64.4 °F 60.8 °F 88% 30.06 in 10.0 mi NNW 11.5 mph - N/A   Overcast
9:35 AM 64.4 °F 60.8 °F 88% 30.06 in 10.0 mi NNW 9.2 mph - N/A   Overcast
9:55 AM 64.4 °F 59.0 °F 83% 30.06 in 10.0 mi NNW 11.5 mph - N/A   Overcast
10:15 AM 64.4 °F 60.8 °F 88% 30.07 in 10.0 mi NNW 12.7 mph - N/A   Overcast
10:35 AM 66.2 °F 60.8 °F 83% 30.08 in 10.0 mi North 11.5 mph - N/A   Overcast
10:55 AM 66.2 °F 60.8 °F 83% 30.08 in 10.0 mi NNW 10.4 mph - N/A   Overcast
11:15 AM 66.2 °F 60.8 °F 83% 30.08 in 10.0 mi NW 8.1 mph - N/A   Overcast
11:35 AM 66.2 °F 60.8 °F 83% 30.08 in 10.0 mi NW 8.1 mph - N/A   Overcast
11:55 AM 66.2 °F 60.8 °F 83% 30.07 in 10.0 mi NW 8.1 mph - N/A   Overcast
12:15 PM 66.2 °F 60.8 °F 83% 30.07 in 10.0 mi NW 9.2 mph - N/A   Overcast
12:35 PM 68.0 °F 59.0 °F 73% 30.06 in 10.0 mi NNW 11.5 mph - N/A   Overcast
12:55 PM 69.8 °F 59.0 °F 68% 30.05 in 10.0 mi NW 10.4 mph - N/A   Overcast
1:15 PM 71.6 °F 60.8 °F 69% 30.04 in 10.0 mi NNW 11.5 mph - N/A   Overcast
1:35 PM 71.6 °F 60.8 °F 69% 30.03 in 10.0 mi NW 12.7 mph 16.1 mph N/A   Mostly Cloudy
1:55 PM 71.6 °F 60.8 °F 69% 30.02 in 10.0 mi NW 12.7 mph 18.4 mph N/A   Scattered Clouds
2:15 PM 71.6 °F 59.0 °F 64% 30.01 in 10.0 mi NW 13.8 mph - N/A   Scattered Clouds
2:35 PM 73.4 °F 59.0 °F 61% 30.00 in 10.0 mi NW 12.7 mph - N/A   Overcast
2:55 PM 73.4 °F 59.0 °F 61% 29.99 in 10.0 mi NNW 9.2 mph - N/A   Overcast
3:15 PM 73.4 °F 59.0 °F 61% 29.98 in 10.0 mi WNW 11.5 mph - N/A   Mostly Cloudy
3:35 PM 73.4 °F 60.8 °F 65% 29.98 in 10.0 mi WNW 8.1 mph - N/A   Overcast
3:55 PM 75.2 °F 60.8 °F 61% 29.97 in 10.0 mi NW 10.4 mph - N/A   Overcast
4:15 PM 75.2 °F 60.8 °F 61% 29.97 in 10.0 mi NNW 10.4 mph - N/A   Overcast
4:35 PM 75.2 °F 59.0 °F 57% 29.96 in 10.0 mi NNW 9.2 mph - N/A   Overcast
4:55 PM 77.0 °F 59.0 °F 54% 29.96 in 10.0 mi North 6.9 mph - N/A   Overcast
5:15 PM 78.8 °F 59.0 °F 51% 29.95 in 10.0 mi NNW 10.4 mph - N/A   Overcast
5:35 PM 77.0 °F 59.0 °F 54% 29.95 in 10.0 mi North 8.1 mph - N/A   Scattered Clouds
5:55 PM 77.0 °F 57.2 °F 50% 29.95 in 10.0 mi North 8.1 mph - N/A   Clear
6:15 PM 75.2 °F 57.2 °F 53% 29.95 in 10.0 mi NW 9.2 mph - N/A   Clear
6:35 PM 75.2 °F 57.2 °F 53% 29.95 in 10.0 mi NNW 8.1 mph - N/A   Clear
6:55 PM 73.4 °F 57.2 °F 57% 29.95 in 10.0 mi Calm Calm - N/A   Clear
7:15 PM 73.4 °F 57.2 °F 57% 29.95 in 10.0 mi NNW 3.5 mph - N/A   Clear
7:35 PM 71.6 °F 57.2 °F 60% 29.95 in 10.0 mi Calm Calm - N/A   Clear
7:55 PM 71.6 °F 57.2 °F 60% 29.95 in 10.0 mi Calm Calm - N/A   Clear
8:15 PM 71.6 °F 57.2 °F 60% 29.95 in 10.0 mi Calm Calm - N/A   Clear
8:35 PM 69.8 °F 57.2 °F 64% 29.95 in 10.0 mi Calm Calm - N/A   Clear
8:55 PM 69.8 °F 57.2 °F 64% 29.96 in 10.0 mi Calm Calm - N/A   Clear
9:15 PM 69.8 °F 57.2 °F 64% 29.96 in 10.0 mi Calm Calm - N/A   Clear
9:35 PM 68.0 °F 57.2 °F 68% 29.96 in 10.0 mi Calm Calm - N/A   Clear
9:55 PM 66.2 °F 57.2 °F 73% 29.96 in 10.0 mi Calm Calm - N/A   Clear
10:15 PM 66.2 °F 57.2 °F 73% 29.96 in 10.0 mi Calm Calm - N/A   Clear
10:35 PM 66.2 °F 57.2 °F 73% 29.96 in 10.0 mi Calm Calm - N/A   Clear
10:55 PM 64.4 °F 57.2 °F 77% 29.97 in 10.0 mi Calm Calm - N/A   Clear
11:15 PM 66.2 °F 57.2 °F 73% 29.97 in 10.0 mi Calm Calm - N/A   Clear
11:35 PM 66.2 °F 57.2 °F 73% 29.97 in 10.0 mi Calm Calm - N/A   Clear
11:55 PM 64.4 °F 57.2 °F 77% 29.96 in 10.0 mi Calm Calm - N/A   Clear